Regional Weather Roundup
Issued by NWS

Home | Current Version | Previous Version | Graphics & Text | Print | Product List | Glossary On
Versions: 1 2 3 4 5 6 7 8 9 10 11 12 13 14 15 16 17 18 19 20 21 22 23 24 25 26 27 28 29 30 31 32 33 34 35 36 37 38 39 40 41 42 43 44 45 46 47 48 49 50
000
ASUS43 KFSD 191002
RWRSD

WEATHER ROUNDUP FOR SOUTH DAKOTA
NATIONAL WEATHER SERVICE SIOUX FALLS SD
500 AM CDT THU OCT 19 2017

NOTE: "FAIR" INDICATES FEW OR NO CLOUDS BELOW 12,000 FEET WITH NO
SIGNIFICANT WEATHER AND/OR OBSTRUCTIONS TO VISIBILITY.


SDZ001>005-009-010-012>017-191100-
NORTHWEST AND NORTH CENTRAL SOUTH DAKOTA

CITY           SKY/WX    TMP DP  RH WIND       PRES   REMARKS
BUFFALO          N/A     45  26  47 CALM      29.77F
FAITH            N/A     45  31  58 S21       29.83F
MOBRIDGE       CLOUDY    50  35  56 SE14      29.84F
$$

SDZ012>016-024>037-041>051-057-063-072>074-191100-
SOUTHWEST AND SOUTH CENTRAL SOUTH DAKOTA

CITY           SKY/WX    TMP DP  RH WIND       PRES   REMARKS
RAPID CTY ARPT CLOUDY    48  28  46 S10       29.89F
PIERRE         CLOUDY    44  34  67 SE10      29.90F
CUSTER         CLOUDY    51  16  24 W10       29.99F
ELLSWORTH AFB  CLOUDY    51  27  40 S9        29.87F
PHILIP         CLOUDY    55  36  48 SW13      29.87F
PINE RIDGE     PTCLDY    54  33  45 SW14      29.96F
SPEARFISH      FAIR      57  19  23 CALM      29.89F
WINNER         FAIR      53  35  50 S18G29    29.96F
$$

SDZ004>011-016>023-039-040-191100-
NORTHEAST SOUTH DAKOTA

CITY           SKY/WX    TMP DP  RH WIND       PRES   REMARKS
ABERDEEN       CLOUDY    34  30  85 S7        29.93F WCI  28
WATERTOWN      CLOUDY    39  32  76 SE7       29.98F
BROOKINGS      CLOUDY    38  31  76 S3        30.02S
SISSETON         N/A     49  29  46 S7        29.93F
$$

SDZ017-020-022-023-036>040-048>070-191100-
SOUTHEAST SOUTH DAKOTA

CITY           SKY/WX    TMP DP  RH WIND       PRES   REMARKS
SIOUX FALLS    CLOUDY    40  35  83 CALM      30.04S
HURON          CLOUDY    41  31  67 S10       29.98F
CHAMBERLAIN    CLOUDY    42  35  74 SE7       29.97F
MITCHELL       CLOUDY    49  29  46 S9        30.01S
YANKTON        CLOUDY    43  35  73 CALM      30.04F
$$

ABBREVIATIONS USED IN REMARKS
   TC - TEMPERATURE IN CELSIUS
  WCI - WIND CHILL INDEX
   HX - HEAT INDEX
  VSB - VISIBILITY





USA.gov is the U.S. government's official web portal to all federal, state and local government web resources and services.